sat.trackr.live / text

‹ back to catalog

CENTAURI-1

NORAD 43809 · 2018-099BD

PAYLOAD ACTIVE UNKNOWN

§ Identity

Operator
Country
AUS
Launch date
2018-12-03
Launch site
AFWTR
Launch vehicle
Mass (kg)
RCS (m²)

External: N2YO · Heavens-Above · Gunter

§ Orbital elements

Epoch: 2026-05-25T01:00:25.241184Z

Period
94.98 min
Inclination
97.4236°
Eccentricity
0.0015382
Mean motion
15.16086678 rev/d
Perigee alt
507.1 km
Apogee alt
528.3 km
Semi-major
6,895.8 km
B*
2.5681e-4
RAAN
197.2607°
Arg perigee
53.7830°
Mean anomaly
306.4823°
Rev number
40,899

§ Raw data

CENTAURI-11 43809U 18099BD  26145.04195881  .00004893  00000+0  25681-3 0  99932 43809  97.4236 197.2607 0015382  53.7830 306.4823 15.16086678408998

JSON: /api/v1/satellites/43809 · /tle

For live sub-satellite position, see the globe view (requires WebGL).

§ Visibility from observer

Set your observer location to see the next 7 days of passes ≥ 10°. The values pass through the URL so the page stays shareable.

No JS? Fill the form by hand. The geolocation button needs JavaScript.

§ Radio — SatNOGS DB

ModeDescriptionDownlinkUplink
FSK FSK9k6 TLM 400.625 MHz

1 transmitter · refreshed weekly from db.satnogs.org